M I D A S
Marine Information and Data Acquisition System
Tripno 646 of the Zeeleeuw from 2004-02-11 07:52:58 to 2004-02-11 17:59:42
Back to CruiseResearch ActivitiesStationsMapUnderway DataData graphs

EquipmentUnitsComments
TimeDGPSUTC
LatitudeDGPSDM.mWGS84
LongitudeDGPSDM.mWGS84
SpeedMeteo Stationm/sRelative wind speed
DirectionMeteo StationdegRelative wind direction
TemperatureMeteo Stationdeg CelciusAir temperature
PressureMeteo StationPaAtmospheric pressure
HumidityMeteo Station%Relative humidity
Missing or incorrect values are displayed as -999
Metereological data collected by the RV Zeeleeuw from 2004-02-11 07:52:58 to 2004-02-11 17:59:42
Time Latitude Longitude Speed Direction Temperature Pressure Humidity
2004-02-11 07:54 51°13.631 2°55.966 8.4 216 7.9 102550 94
2004-02-11 07:55 51°13.675 2°55.846 8.5 217 7.9 102550 94
2004-02-11 07:55 51°13.686 2°55.819 4.5 253 7.9 102550 94
2004-02-11 07:57 51°13.683 2°55.763 5.4 282 7.9 102550 94
2004-02-11 07:57 51°13.708 2°55.778 7.7 358 7.9 102530 94
2004-02-11 07:59 51°13.718 2°55.757 6.6 22 7.9 102550 94
2004-02-11 07:59 51°13.77 2°55.686 9.5 12 7.9 102560 94
2004-02-11 08:00 51°13.876 2°55.596 10.4 11 7.8 102560 94
2004-02-11 08:01 51°14 2°55.513 11.3 10 7.8 102560 94
2004-02-11 08:02 51°14.142 2°55.413 10.3 8 7.8 102520 94
2004-02-11 08:03 51°14.278 2°55.232 12 31 7.8 102520 94
2004-02-11 08:05 51°14.399 2°54.983 13.4 26 7.8 102500 94
2004-02-11 08:06 51°14.497 2°54.724 12.3 24 7.8 102510 94
2004-02-11 08:06 51°14.57 2°54.538 10.1 33 7.8 102520 94
2004-02-11 08:07 51°14.666 2°54.298 13.2 25 7.8 102490 94
2004-02-11 08:09 51°14.785 2°53.978 14.3 27 7.8 102480 94
2004-02-11 08:09 51°14.901 2°53.676 14.5 29 7.8 102490 94
2004-02-11 08:10 51°15.021 2°53.364 15 29 7.8 102480 94
2004-02-11 08:11 51°15.133 2°53.04 14.8 32 7.8 102490 94
2004-02-11 08:12 51°15.234 2°52.702 14.7 33 7.8 102490 94
2004-02-11 08:13 51°15.335 2°52.365 14.3 35 7.8 102480 94
2004-02-11 08:14 51°15.419 2°52.018 13.4 40 7.8 102490 94
2004-02-11 08:15 51°15.464 2°51.647 12.6 47 7.8 102490 94
2004-02-11 08:16 51°15.489 2°51.266 12.5 43 7.8 102500 94
2004-02-11 08:18 51°15.518 2°50.881 13.5 41 7.8 102500 94
2004-02-11 08:18 51°15.546 2°50.509 12.4 39 7.8 102500 94
2004-02-11 08:20 51°15.578 2°50.123 13.4 46 7.8 102500 94
2004-02-11 08:20 51°15.6 2°49.747 13.8 44 7.8 102490 95
2004-02-11 08:21 51°15.619 2°49.367 13 43 7.8 102500 95
2004-02-11 08:22 51°15.64 2°48.989 12.5 51 7.8 102500 95
2004-02-11 08:23 51°15.662 2°48.611 13.8 45 7.8 102500 95
2004-02-11 08:24 51°15.686 2°48.229 13.7 45 7.8 102500 95
2004-02-11 08:25 51°15.707 2°47.844 12.6 40 7.8 102510 95
2004-02-11 08:26 51°15.73 2°47.458 13.3 41 7.8 102520 95
2004-02-11 08:27 51°15.75 2°47.073 12.7 41 7.8 102510 95
2004-02-11 08:28 51°15.76 2°46.691 12.2 49 7.8 102520 95
2004-02-11 08:30 51°15.773 2°46.301 10.5 45 7.8 102520 95
2004-02-11 08:31 51°15.785 2°45.916 13.2 43 7.8 102530 95
2004-02-11 08:31 51°15.797 2°45.539 12.5 41 7.8 102530 95
2004-02-11 08:33 51°15.82 2°45.151 11.8 41 7.8 102530 95
2004-02-11 08:33 51°15.848 2°44.781 12.3 40 7.8 102530 95
2004-02-11 08:34 51°15.897 2°44.409 12.8 37 7.8 102530 95
2004-02-11 08:35 51°15.994 2°44.077 14.2 20 7.8 102540 95
2004-02-11 08:36 51°16.175 2°43.859 15 15 7.9 102560 95
2004-02-11 08:38 51°16.368 2°43.652 14.1 15 7.9 102550 95
2004-02-11 08:39 51°16.557 2°43.454 13.5 11 7.9 102560 95
2004-02-11 08:39 51°16.748 2°43.277 14.8 15 7.9 102560 95
2004-02-11 08:41 51°16.949 2°43.104 15.6 11 7.9 102550 95
2004-02-11 08:41 51°17.145 2°42.945 14.1 8 8 102560 95
2004-02-11 08:42 51°17.347 2°42.778 15.4 16 8 102570 95
2004-02-11 08:43 51°17.56 2°42.619 15.1 10 8 102560 95
2004-02-11 08:45 51°17.769 2°42.48 15.3 7 8 102560 95
2004-02-11 08:45 51°17.973 2°42.344 15.5 11 8 102560 95
2004-02-11 08:46 51°18.178 2°42.193 16.4 7 8 102560 95
2004-02-11 08:47 51°18.379 2°42.04 16.6 12 8 102560 95
2004-02-11 08:48 51°18.582 2°41.913 17.5 13 8.1 102590 95
2004-02-11 08:49 51°18.793 2°41.796 16.6 10 8.1 102590 95
2004-02-11 08:50 51°19.002 2°41.681 16.4 7 8.1 102590 95
2004-02-11 08:52 51°19.212 2°41.592 15.3 360 8.2 102580 95
2004-02-11 08:52 51°19.421 2°41.502 15.4 1 8.2 102580 95
2004-02-11 08:53 51°19.635 2°41.439 14.7 4 8.2 102590 94
2004-02-11 08:54 51°19.85 2°41.395 15.5 360 8.2 102580 94
2004-02-11 08:56 51°20.07 2°41.397 14.8 355 8.2 102580 94
2004-02-11 08:57 51°20.286 2°41.431 15.5 352 8.2 102590 94
2004-02-11 08:57 51°20.441 2°41.506 8.5 305 8.2 102590 94
2004-02-11 08:58 51°20.436 2°41.585 7.9 260 8.2 102630 94
2004-02-11 08:59 51°20.43 2°41.584 8.3 296 8.1 102620 94
2004-02-11 09:00 51°20.426 2°41.578 8.1 309 8.1 102630 94
2004-02-11 09:01 51°20.423 2°41.569 8.5 308 8.1 102630 94
2004-02-11 09:02 51°20.423 2°41.56 7.5 328 8.1 102630 94
2004-02-11 09:03 51°20.427 2°41.547 8 341 8.1 102630 94
2004-02-11 09:05 51°20.438 2°41.528 7.2 347 8.2 102640 94
2004-02-11 09:06 51°20.459 2°41.505 9.2 348 8.2 102630 94
2004-02-11 09:06 51°20.475 2°41.483 7.7 342 8.2 102630 94
2004-02-11 09:08 51°20.499 2°41.51 9.5 272 8.2 102620 94
2004-02-11 09:09 51°20.443 2°41.578 2.8 180 8.2 102640 94
2004-02-11 09:10 51°20.312 2°41.459 6.5 105 8.2 102630 94
2004-02-11 09:10 51°20.167 2°41.291 5.6 128 8.2 102630 94
2004-02-11 09:11 51°20.053 2°41.242 4.4 229 8.2 102640 94
2004-02-11 09:12 51°20.048 2°41.335 10.9 333 8.2 102620 94
2004-02-11 09:14 51°20.106 2°41.31 8.3 27 8.2 102640 94
2004-02-11 09:15 51°20.094 2°41.283 6.5 39 8.1 102630 93
2004-02-11 09:16 51°20.102 2°41.234 7.4 13 8.2 102640 93
2004-02-11 09:17 51°20.107 2°41.196 6.6 355 8.2 102650 93
2004-02-11 09:17 51°20.109 2°41.172 7.6 317 8.2 102650 93
2004-02-11 09:19 51°20.123 2°41.182 8.6 316 8.2 102650 93
2004-02-11 09:20 51°20.097 2°41.301 5 259 8.2 102630 93
2004-02-11 09:21 51°20.092 2°41.377 6.8 295 8.2 102650 93
2004-02-11 09:21 51°20.095 2°41.391 7.2 286 8.2 102650 93
2004-02-11 09:22 51°20.093 2°41.388 7 286 8.2 102650 93
2004-02-11 09:23 51°20.088 2°41.376 6.4 295 8.2 102640 93
2004-02-11 09:25 51°20.081 2°41.357 6.6 288 8.1 102650 93
2004-02-11 09:25 51°20.069 2°41.334 5.8 284 8.1 102650 93
2004-02-11 09:26 51°20.059 2°41.316 6.6 288 8.1 102660 93
2004-02-11 09:27 51°20.055 2°41.303 6.3 295 8.1 102660 93
2004-02-11 09:29 51°20.054 2°41.291 6.6 297 8.1 102650 93
2004-02-11 09:30 51°20.059 2°41.281 7.8 332 8.1 102650 93
2004-02-11 09:30 51°20.098 2°41.202 7.9 56 8.1 102640 93
2004-02-11 09:32 51°20.025 2°41.07 5.1 105 8.1 102640 93
2004-02-11 09:33 51°19.849 2°40.946 4.9 77 8.1 102650 93
2004-02-11 09:33 51°19.721 2°40.884 2.2 199 8.1 102660 93
2004-02-11 09:34 51°19.691 2°40.95 6.8 280 8.1 102660 93
2004-02-11 09:35 51°19.693 2°40.967 6.3 283 8.1 102660 93
2004-02-11 09:37 51°19.695 2°40.968 6.8 291 8.1 102660 93
2004-02-11 09:37 51°19.692 2°40.961 7 287 8.1 102660 93
2004-02-11 09:39 51°19.689 2°40.957 6.3 284 8.1 102660 93
2004-02-11 09:39 51°19.688 2°40.955 6 286 8.1 102660 93
2004-02-11 09:40 51°19.69 2°40.953 6 299 8.1 102660 93
2004-02-11 09:41 51°19.691 2°40.949 6.8 291 8.1 102670 93
2004-02-11 09:42 51°19.69 2°40.947 6.9 289 8.1 102670 93
2004-02-11 09:44 51°19.687 2°40.942 6.8 281 8.1 102670 93
2004-02-11 09:44 51°19.686 2°40.938 7.7 282 8.1 102670 93
2004-02-11 09:45 51°19.684 2°40.938 7.8 275 8.1 102660 93
2004-02-11 09:47 51°19.666 2°40.981 3.5 205 8.1 102670 93
2004-02-11 09:48 51°19.547 2°40.908 5.8 74 8.1 102660 93
2004-02-11 09:48 51°19.386 2°40.704 7 83 8.1 102640 93
2004-02-11 09:49 51°19.26 2°40.641 3.9 228 8.1 102670 93
2004-02-11 09:50 51°19.249 2°40.721 8 309 8.2 102670 93
2004-02-11 09:51 51°19.313 2°40.734 9.2 317 8.1 102650 93
2004-02-11 09:53 51°19.331 2°40.729 9.7 264 8.2 102660 93
2004-02-11 09:54 51°19.322 2°40.711 8.4 267 8.1 102670 93
2004-02-11 09:55 51°19.317 2°40.705 7.3 288 8.1 102670 93
2004-02-11 09:55 51°19.32 2°40.704 7.7 297 8.1 102670 93
2004-02-11 09:57 51°19.324 2°40.696 8.4 303 8.1 102670 93
2004-02-11 09:57 51°19.321 2°40.682 6.7 295 8.1 102680 93
2004-02-11 09:58 51°19.312 2°40.665 7.5 289 8.1 102680 93
2004-02-11 10:00 51°19.298 2°40.64 8.3 265 8 102680 93
2004-02-11 10:00 51°19.285 2°40.616 8.1 281 8.1 102680 93
2004-02-11 10:02 51°19.272 2°40.592 6.6 285 8.1 102680 93
2004-02-11 10:03 51°19.259 2°40.571 7.7 289 8.1 102690 93
2004-02-11 10:03 51°19.294 2°40.538 9.8 23 8.1 102680 93
2004-02-11 10:04 51°19.269 2°40.392 6.4 104 8.1 102670 93
2004-02-11 10:06 51°19.173 2°40.374 4.4 212 8.1 102700 93
2004-02-11 10:07 51°19.136 2°40.39 6.8 240 8.1 102700 94
2004-02-11 10:07 51°19.118 2°40.39 5.6 258 8.1 102690 94
2004-02-11 10:09 51°19.11 2°40.41 7.7 272 8.1 102690 94
2004-02-11 10:10 51°19.114 2°40.438 8.3 304 8.1 102700 94
2004-02-11 10:11 51°19.163 2°40.43 8.5 322 8 102690 94
2004-02-11 10:12 51°19.18 2°40.416 8.3 306 8.1 102700 94
2004-02-11 10:13 51°19.179 2°40.404 7.1 296 8 102700 94
2004-02-11 10:13 51°19.179 2°40.402 7.8 291 8 102700 94
2004-02-11 10:14 51°19.178 2°40.406 7.5 285 8 102710 94
2004-02-11 10:16 51°19.173 2°40.401 7.8 290 8 102710 94
2004-02-11 10:17 51°19.168 2°40.392 7.5 278 8 102710 94
2004-02-11 10:17 51°19.138 2°40.446 1.8 170 8 102710 94
2004-02-11 10:19 51°18.985 2°40.499 1.2 128 8 102700 94
2004-02-11 10:19 51°18.808 2°40.56 0.6 93 8 102700 94
2004-02-11 10:21 51°18.665 2°40.594 3.5 239 8 102710 94
2004-02-11 10:22 51°18.648 2°40.663 5.6 298 8 102710 94
2004-02-11 10:23 51°18.64 2°40.655 6.5 293 8 102720 94
2004-02-11 10:24 51°18.638 2°40.655 5.9 297 8 102710 94
2004-02-11 10:25 51°18.637 2°40.659 5.5 298 7.9 102720 94
2004-02-11 10:26 51°18.639 2°40.663 5.3 300 7.9 102720 94
2004-02-11 10:27 51°18.643 2°40.668 5.5 306 7.9 102720 94
2004-02-11 10:28 51°18.644 2°40.665 5.1 302 7.9 102730 94
2004-02-11 10:29 51°18.642 2°40.659 6.8 307 7.9 102730 94
2004-02-11 10:30 51°18.641 2°40.65 6 302 7.9 102720 94
2004-02-11 10:31 51°18.636 2°40.642 5.6 289 7.9 102720 94
2004-02-11 10:32 51°18.628 2°40.632 5.4 287 7.9 102730 94
2004-02-11 10:33 51°18.616 2°40.62 5.4 272 7.9 102720 94
2004-02-11 10:34 51°18.603 2°40.6 6.6 270 7.9 102720 94
2004-02-11 10:35 51°18.598 2°40.589 7.5 301 7.9 102720 94
2004-02-11 10:36 51°18.606 2°40.588 7 313 7.9 102720 94
2004-02-11 10:37 51°18.635 2°40.582 7.3 323 7.9 102730 94
2004-02-11 10:38 51°18.654 2°40.566 7.1 320 7.9 102720 94
2004-02-11 10:38 51°18.666 2°40.561 6.3 302 7.9 102720 94
2004-02-11 10:39 51°18.669 2°40.589 6.3 273 7.9 102720 94
2004-02-11 10:41 51°18.659 2°40.596 7.1 273 7.9 102720 94
2004-02-11 10:42 51°18.647 2°40.589 6.7 271 7.9 102730 94
2004-02-11 10:42 51°18.636 2°40.583 7.2 298 7.9 102730 94
2004-02-11 10:43 51°18.636 2°40.631 4.6 250 7.9 102720 94
2004-02-11 10:45 51°18.548 2°40.624 6 94 8 102720 94
2004-02-11 10:46 51°18.504 2°40.391 9.5 49 7.9 102700 94
2004-02-11 10:46 51°18.45 2°40.084 7.3 73 7.9 102690 94
2004-02-11 10:48 51°18.405 2°39.935 7.6 52 7.9 102710 94
2004-02-11 10:49 51°18.442 2°39.857 9.3 329 7.9 102720 94
2004-02-11 10:50 51°18.449 2°39.939 4.1 257 8 102710 94
2004-02-11 10:51 51°18.41 2°40.025 6.8 270 7.9 102730 94
2004-02-11 10:52 51°18.397 2°40.038 8.3 287 8 102730 94
2004-02-11 10:53 51°18.39 2°40.036 6.8 307 7.9 102730 94
2004-02-11 10:54 51°18.391 2°40.035 8.2 325 8 102730 94
2004-02-11 10:55 51°18.445 2°39.94 8.9 53 8 102720 94
2004-02-11 10:56 51°18.363 2°39.794 3.9 153 7.9 102730 94
2004-02-11 10:57 51°18.283 2°39.878 6.4 264 7.9 102740 94
2004-02-11 10:58 51°18.268 2°39.9 6.3 288 7.9 102740 94
2004-02-11 10:58 51°18.255 2°39.89 8.3 300 7.9 102740 94
2004-02-11 10:59 51°18.24 2°39.877 7.1 295 7.9 102750 94
2004-02-11 11:00 51°18.228 2°39.87 7.4 307 7.9 102750 94
2004-02-11 11:02 51°18.236 2°39.886 7.2 43 7.9 102740 94
2004-02-11 11:03 51°18.246 2°39.889 8 326 7.9 102740 94
2004-02-11 11:04 51°18.255 2°39.882 8 341 7.9 102740 94
2004-02-11 11:04 51°18.259 2°39.869 8.2 340 7.9 102740 94
2004-02-11 11:05 51°18.26 2°39.851 7.8 342 7.9 102740 94
2004-02-11 11:07 51°18.26 2°39.83 6.9 343 7.9 102740 94
2004-02-11 11:08 51°18.258 2°39.811 6.9 343 7.9 102750 94
2004-02-11 11:08 51°18.26 2°39.805 8.1 325 7.9 102750 94
2004-02-11 11:09 51°18.269 2°39.808 7.9 327 7.9 102750 94
2004-02-11 11:11 51°18.278 2°39.816 8.9 318 7.9 102740 94
2004-02-11 11:12 51°18.286 2°39.826 7.5 323 7.9 102740 94
2004-02-11 11:12 51°18.296 2°39.839 7 326 7.9 102740 94
2004-02-11 11:14 51°18.306 2°39.862 6.6 42 7.9 102740 94
2004-02-11 11:15 51°18.318 2°39.889 8.4 316 7.9 102740 94
2004-02-11 11:16 51°18.32 2°39.905 7.2 311 7.9 102740 94
2004-02-11 11:16 51°18.316 2°39.905 8 314 7.9 102750 94
2004-02-11 11:18 51°18.307 2°39.896 8 226 7.9 102750 94
2004-02-11 11:19 51°18.292 2°39.883 6.6 313 7.9 102750 94
2004-02-11 11:20 51°18.281 2°39.879 8.4 306 7.8 102750 94
2004-02-11 11:21 51°18.276 2°39.888 7.8 229 7.8 102750 94
2004-02-11 11:21 51°18.278 2°39.903 8.3 317 7.8 102750 94
2004-02-11 11:23 51°18.285 2°39.915 8.1 326 7.8 102750 94
2004-02-11 11:24 51°18.293 2°39.933 8.4 317 7.8 102750 94
2004-02-11 11:25 51°18.298 2°39.943 7.7 319 7.8 102750 94
2004-02-11 11:26 51°18.303 2°39.947 8.8 316 7.8 102750 94
2004-02-11 11:27 51°18.301 2°39.955 8.9 228 7.8 102740 94
2004-02-11 11:27 51°18.303 2°39.961 7.6 329 7.8 102740 94
2004-02-11 11:28 51°18.306 2°39.951 7.3 344 7.8 102750 94
2004-02-11 11:29 51°18.308 2°39.942 6.9 331 7.8 102750 94
2004-02-11 11:30 51°18.312 2°39.933 7.8 341 7.8 102750 94
2004-02-11 11:32 51°18.318 2°39.913 7.4 352 7.8 102750 94
2004-02-11 11:32 51°18.323 2°39.898 6.9 44 7.8 102750 94
2004-02-11 11:33 51°18.323 2°39.902 7.7 306 7.8 102750 94
2004-02-11 11:34 51°18.323 2°39.911 7.4 314 7.8 102750 94
2004-02-11 11:36 51°18.327 2°39.915 7.4 321 7.8 102760 94
2004-02-11 11:37 51°18.331 2°39.914 6.7 331 7.8 102760 94
2004-02-11 11:37 51°18.332 2°39.91 7.8 321 7.8 102760 94
2004-02-11 11:38 51°18.331 2°39.903 7.6 334 7.8 102760 94
2004-02-11 11:40 51°18.33 2°39.893 7.7 331 7.8 102760 94
2004-02-11 11:41 51°18.323 2°39.883 7.2 322 7.8 102760 94
2004-02-11 11:42 51°18.314 2°39.872 7.2 320 7.8 102770 94
2004-02-11 11:43 51°18.308 2°39.863 7.6 322 7.8 102770 94
2004-02-11 11:43 51°18.304 2°39.854 6.9 323 7.8 102760 94
2004-02-11 11:45 51°18.301 2°39.847 6.7 324 7.8 102760 94
2004-02-11 11:46 51°18.303 2°39.843 6.2 322 7.8 102760 94
2004-02-11 11:47 51°18.307 2°39.847 7.3 318 7.8 102760 94
2004-02-11 11:47 51°18.278 2°39.916 3.1 217 7.8 102750 95
2004-02-11 11:48 51°18.185 2°39.846 6.2 87 7.8 102760 95
2004-02-11 11:50 51°18.191 2°39.687 7.8 15 7.8 102750 94
2004-02-11 11:51 51°18.238 2°39.69 8 310 7.8 102760 95
2004-02-11 11:51 51°18.225 2°39.735 6.7 263 7.8 102760 95
2004-02-11 11:53 51°18.189 2°39.787 6.5 280 7.7 102760 95
2004-02-11 11:54 51°18.177 2°39.814 6.4 295 7.7 102750 95
2004-02-11 11:55 51°18.166 2°39.813 6.4 297 7.7 102760 95
2004-02-11 11:56 51°18.152 2°39.802 6.7 300 7.8 102750 95
2004-02-11 11:57 51°18.143 2°39.819 6.4 282 7.7 102750 95
2004-02-11 11:57 51°18.052 2°39.851 4.1 79 7.7 102750 95
2004-02-11 11:58 51°18.009 2°39.642 8.7 30 7.7 102740 95
2004-02-11 11:59 51°18.061 2°39.581 6.2 332 7.7 102770 95
2004-02-11 12:01 51°18.059 2°39.575 6.6 292 7.7 102760 95
2004-02-11 12:02 51°18.049 2°39.574 4.8 303 7.7 102740 95
2004-02-11 12:02 51°18.035 2°39.572 6 313 7.7 102740 95
2004-02-11 12:04 51°18.084 2°39.561 8.2 29 7.7 102730 95
2004-02-11 12:04 51°18.06 2°39.418 3.8 135 7.7 102720 95
2004-02-11 12:05 51°17.978 2°39.448 5.3 282 7.7 102730 95
2004-02-11 12:06 51°17.962 2°39.534 5.8 298 7.7 102740 95
2004-02-11 12:08 51°17.951 2°39.539 5.6 297 7.7 102750 95
2004-02-11 12:08 51°17.939 2°39.534 5.9 292 7.7 102750 95
2004-02-11 12:10 51°17.927 2°39.53 5.6 291 7.7 102750 95
2004-02-11 12:10 51°17.916 2°39.528 5.8 298 7.7 102750 95
2004-02-11 12:12 51°17.918 2°39.62 6 294 7.7 102720 95
2004-02-11 12:13 51°17.906 2°39.663 6.4 286 7.7 102740 95
2004-02-11 12:14 51°17.895 2°39.659 6 298 7.7 102750 95
2004-02-11 12:15 51°17.889 2°39.661 6.8 299 7.7 102750 95
2004-02-11 12:16 51°17.884 2°39.731 6.5 279 7.7 102750 95
2004-02-11 12:17 51°17.863 2°39.744 4.3 257 7.7 102740 95
2004-02-11 12:18 51°17.842 2°39.74 5.7 261 7.7 102760 95
2004-02-11 12:19 51°17.82 2°39.74 6.5 275 7.7 102760 95
2004-02-11 12:20 51°17.813 2°39.81 7.4 306 7.7 102750 95
2004-02-11 12:20 51°17.814 2°39.863 6.1 295 7.7 102740 95
2004-02-11 12:22 51°17.804 2°39.869 6.8 298 7.7 102760 95
2004-02-11 12:22 51°17.794 2°39.866 6.1 295 7.7 102760 95
2004-02-11 12:24 51°17.786 2°39.935 6.3 289 7.7 102750 95
2004-02-11 12:25 51°17.765 2°39.966 3.2 256 7.7 102740 95
2004-02-11 12:26 51°17.742 2°39.967 6.1 266 7.7 102760 95
2004-02-11 12:26 51°17.73 2°39.986 6.3 305 7.7 102750 95
2004-02-11 12:28 51°17.713 2°40.067 5.5 267 7.7 102750 95
2004-02-11 12:29 51°17.69 2°40.078 5.2 276 7.6 102750 95
2004-02-11 12:29 51°17.673 2°40.071 6.1 283 7.7 102760 95
2004-02-11 12:31 51°17.65 2°40.022 3.7 255 7.7 102740 95
2004-02-11 12:31 51°17.631 2°39.952 5.6 288 7.7 102750 95
2004-02-11 12:33 51°17.64 2°40.004 6.5 325 7.7 102750 95
2004-02-11 12:34 51°17.652 2°40.01 6.1 348 7.7 102750 95
2004-02-11 12:35 51°17.65 2°39.997 5.7 345 7.7 102750 95
2004-02-11 12:36 51°17.636 2°39.98 6.3 340 7.7 102750 95
2004-02-11 12:36 51°17.639 2°39.961 7.4 16 7.7 102750 95
2004-02-11 12:37 51°17.695 2°39.895 8.7 4 7.7 102740 95
2004-02-11 12:38 51°17.769 2°39.815 8.8 37 7.7 102740 95
2004-02-11 12:40 51°17.762 2°39.766 5.3 77 7.7 102730 94
2004-02-11 12:40 51°17.74 2°39.742 6.8 88 7.6 102750 94
2004-02-11 12:42 51°17.717 2°39.715 7.4 95 7.6 102740 94
2004-02-11 12:43 51°17.738 2°39.619 9.3 23 7.6 102720 94
2004-02-11 12:44 51°17.81 2°39.563 8.1 20 7.6 102750 94
2004-02-11 12:44 51°17.834 2°39.529 7 1 7.6 102740 94
2004-02-11 12:45 51°17.836 2°39.515 7.2 341 7.7 102750 94
2004-02-11 12:47 51°17.836 2°39.516 7.7 341 7.7 102750 94
2004-02-11 12:48 51°17.862 2°39.495 6.7 38 7.7 102750 94
2004-02-11 12:49 51°17.881 2°39.437 6.1 48 7.7 102750 94
2004-02-11 12:50 51°17.879 2°39.395 6 41 7.6 102760 94
2004-02-11 12:51 51°17.869 2°39.361 6.5 58 7.6 102750 94
2004-02-11 12:52 51°17.854 2°39.332 6 68 7.6 102750 94
2004-02-11 12:53 51°17.835 2°39.305 6.8 92 7.6 102750 94
2004-02-11 12:54 51°17.811 2°39.248 5 136 7.7 102750 94
2004-02-11 12:55 51°17.728 2°39.233 7.4 269 7.7 102750 94
2004-02-11 12:56 51°17.736 2°39.329 8.7 355 7.7 102730 94
2004-02-11 12:57 51°17.785 2°39.33 8.1 356 7.7 102750 94
2004-02-11 12:58 51°17.821 2°39.378 7 312 7.7 102740 94
2004-02-11 12:59 51°17.815 2°39.392 6.5 313 7.7 102760 94
2004-02-11 12:59 51°17.805 2°39.399 5.8 307 7.7 102760 93
2004-02-11 13:01 51°17.795 2°39.405 5.8 301 7.8 102760 93
2004-02-11 13:02 51°17.796 2°39.482 7.3 302 7.8 102740 93
2004-02-11 13:03 51°17.781 2°39.519 6.4 286 7.7 102740 93
2004-02-11 13:04 51°17.77 2°39.537 5.6 301 7.7 102750 93
2004-02-11 13:05 51°17.755 2°39.533 6 290 7.7 102760 93
2004-02-11 13:06 51°17.746 2°39.572 7 292 7.7 102750 93
2004-02-11 13:07 51°17.73 2°39.626 6.3 264 7.7 102750 93
2004-02-11 13:08 51°17.712 2°39.621 6.4 276 7.7 102760 93
2004-02-11 13:09 51°17.694 2°39.617 4.7 275 7.7 102760 93
2004-02-11 13:10 51°17.686 2°39.662 6.8 317 7.7 102760 93
2004-02-11 13:11 51°17.707 2°39.739 6.3 302 7.8 102750 93
2004-02-11 13:12 51°17.696 2°39.746 6.3 287 7.7 102760 92
2004-02-11 13:13 51°17.682 2°39.754 6.1 283 7.7 102760 92
2004-02-11 13:14 51°17.669 2°39.767 6.4 294 7.7 102750 92
2004-02-11 13:15 51°17.679 2°39.861 7.1 279 7.8 102740 92
2004-02-11 13:16 51°17.661 2°39.868 6.3 261 7.8 102740 92
2004-02-11 13:17 51°17.641 2°39.853 4.9 251 7.8 102770 92
2004-02-11 13:18 51°17.62 2°39.848 4.7 257 7.8 102760 92
2004-02-11 13:19 51°17.607 2°39.912 6.6 307 7.8 102760 92
2004-02-11 13:20 51°17.595 2°39.929 5.6 289 7.8 102760 92
2004-02-11 13:21 51°17.577 2°39.932 5.5 288 7.8 102770 92
2004-02-11 13:22 51°17.562 2°39.938 6.2 309 7.8 102770 92
2004-02-11 13:23 51°17.605 2°39.925 7.5 49 7.8 102750 92
2004-02-11 13:24 51°17.61 2°39.725 8.2 43 7.8 102750 92
2004-02-11 13:25 51°17.622 2°39.578 5.3 43 7.8 102750 92
2004-02-11 13:26 51°17.618 2°39.557 5.2 28 7.7 102780 92
2004-02-11 13:27 51°17.604 2°39.548 5.3 21 7.7 102770 92
2004-02-11 13:28 51°17.619 2°39.517 7.7 33 7.7 102760 92
2004-02-11 13:29 51°17.688 2°39.449 7.7 16 7.7 102770 92
2004-02-11 13:30 51°17.714 2°39.432 6.1 41 7.7 102760 92
2004-02-11 13:31 51°17.711 2°39.419 5.8 69 7.7 102770 92
2004-02-11 13:32 51°17.701 2°39.408 5.5 79 7.7 102770 92
2004-02-11 13:33 51°17.721 2°39.341 8.2 28 7.7 102750 92
2004-02-11 13:33 51°17.742 2°39.325 6.5 22 7.7 102760 92
2004-02-11 13:35 51°17.743 2°39.32 5.8 13 7.7 102770 92
2004-02-11 13:36 51°17.737 2°39.32 6.2 2 7.7 102770 92
2004-02-11 13:37 51°17.762 2°39.275 8.4 63 7.7 102740 92
2004-02-11 13:38 51°17.711 2°39.181 2.6 175 7.7 102760 92
2004-02-11 13:39 51°17.647 2°39.267 6.8 280 7.7 102760 92
2004-02-11 13:40 51°17.636 2°39.308 7.2 301 7.7 102750 92
2004-02-11 13:41 51°17.685 2°39.322 7.9 45 7.7 102740 92
2004-02-11 13:42 51°17.694 2°39.248 7.1 90 7.7 102740 92
2004-02-11 13:43 51°17.687 2°39.228 7.5 84 7.6 102760 92
2004-02-11 13:44 51°17.679 2°39.216 4.9 73 7.6 102760 92
2004-02-11 13:45 51°17.67 2°39.21 6.4 74 7.6 102760 92
2004-02-11 13:46 51°17.674 2°39.186 7.6 25 7.6 102750 93
2004-02-11 13:47 51°17.723 2°39.221 7.4 306 7.6 102750 93
2004-02-11 13:48 51°17.683 2°39.334 2.9 211 7.6 102760 93
2004-02-11 13:49 51°17.626 2°39.368 6 171 7.8 102750 93
2004-02-11 13:50 51°17.627 2°39.387 6.4 170 7.7 102770 93
2004-02-11 13:51 51°17.623 2°39.409 6.3 168 7.7 102770 93
2004-02-11 13:52 51°17.608 2°39.428 3.7 204 7.7 102770 93
2004-02-11 13:53 51°17.602 2°39.442 5 208 7.7 102760 93
2004-02-11 13:53 51°17.595 2°39.456 5.5 222 7.7 102770 93
2004-02-11 13:55 51°17.58 2°39.479 5.6 226 7.6 102770 93
2004-02-11 13:55 51°17.544 2°39.538 5.4 244 7.6 102760 93
2004-02-11 13:57 51°17.54 2°39.542 6.8 239 7.6 102760 93
2004-02-11 13:58 51°17.532 2°39.556 6 241 7.6 102760 93
2004-02-11 13:59 51°17.52 2°39.582 5.4 262 7.6 102780 93
2004-02-11 14:00 51°17.509 2°39.647 6.2 277 7.6 102780 93
2004-02-11 14:01 51°17.498 2°39.637 4.7 258 7.6 102780 93
2004-02-11 14:02 51°17.489 2°39.64 4.5 251 7.6 102780 93
2004-02-11 14:03 51°17.482 2°39.688 7.7 311 7.6 102780 93
2004-02-11 14:04 51°17.544 2°39.725 9.1 48 7.6 102750 93
2004-02-11 14:05 51°17.511 2°39.601 6.4 93 7.6 102760 93
2004-02-11 14:06 51°17.482 2°39.445 6.2 86 7.6 102760 93
2004-02-11 14:07 51°17.469 2°39.428 5.5 125 7.6 102770 93
2004-02-11 14:08 51°17.453 2°39.42 5.3 108 7.6 102770 93
2004-02-11 14:09 51°17.445 2°39.411 6.2 89 7.6 102770 93
2004-02-11 14:10 51°17.471 2°39.382 7.9 19 7.6 102770 93
2004-02-11 14:11 51°17.55 2°39.347 7.6 38 7.7 102770 93
2004-02-11 14:12 51°17.58 2°39.313 5.1 65 7.6 102760 93
2004-02-11 14:13 51°17.575 2°39.333 4.3 76 7.7 102770 93
2004-02-11 14:14 51°17.57 2°39.355 5.7 106 7.7 102770 93
2004-02-11 14:15 51°17.562 2°39.342 5.3 98 7.6 102770 93
2004-02-11 14:16 51°17.575 2°39.226 7.3 49 7.6 102760 93
2004-02-11 14:17 51°17.616 2°39.174 6.2 44 7.6 102760 93
2004-02-11 14:18 51°17.622 2°39.185 5.1 60 7.6 102770 93
2004-02-11 14:19 51°17.624 2°39.198 5.6 78 7.6 102770 93
2004-02-11 14:20 51°17.624 2°39.198 5.2 103 7.6 102760 93
2004-02-11 14:21 51°17.575 2°39.145 2.4 199 7.6 102780 93
2004-02-11 14:22 51°17.56 2°39.163 4.7 182 7.7 102780 93
2004-02-11 14:23 51°17.553 2°39.187 4.8 189 7.8 102770 94
2004-02-11 14:24 51°17.544 2°39.213 4.1 200 7.9 102780 94
2004-02-11 14:25 51°17.545 2°39.241 4.4 202 8 102780 94
2004-02-11 14:26 51°17.565 2°39.268 6.3 209 8 102780 93
2004-02-11 14:27 51°17.524 2°39.259 6.3 107 7.9 102780 93
2004-02-11 14:28 51°17.518 2°39.18 7.7 95 7.8 102770 93
2004-02-11 14:29 51°17.519 2°39.192 7.9 90 7.7 102780 93
2004-02-11 14:30 51°17.519 2°39.209 7.5 100 7.7 102770 93
2004-02-11 14:31 51°17.516 2°39.243 6.7 107 7.7 102780 93
2004-02-11 14:32 51°17.515 2°39.312 7.7 125 7.7 102770 93
2004-02-11 14:33 51°17.518 2°39.378 7.6 141 7.6 102790 93
2004-02-11 14:34 51°17.481 2°39.378 6.3 130 7.6 102790 93
2004-02-11 14:35 51°17.465 2°39.347 7.9 122 7.7 102790 93
2004-02-11 14:36 51°17.462 2°39.355 8.2 106 7.6 102780 93
2004-02-11 14:37 51°17.46 2°39.363 7.5 115 7.6 102790 93
2004-02-11 14:38 51°17.443 2°39.351 4.7 156 7.6 102790 93
2004-02-11 14:38 51°17.386 2°39.433 9.2 299 7.7 102810 93
2004-02-11 14:40 51°17.452 2°39.562 9.2 34 7.7 102760 93
2004-02-11 14:41 51°17.457 2°39.458 5.8 130 7.6 102780 93
2004-02-11 14:42 51°17.395 2°39.359 6.6 129 7.6 102800 93
2004-02-11 14:43 51°17.382 2°39.363 8.2 135 7.6 102800 93
2004-02-11 14:44 51°17.37 2°39.371 6.8 130 7.6 102790 93
2004-02-11 14:45 51°17.359 2°39.326 8.4 87 7.6 102800 93
2004-02-11 14:46 51°17.399 2°39.229 6.5 81 7.5 102780 93
2004-02-11 14:47 51°17.439 2°39.117 6.2 74 7.5 102790 93
2004-02-11 14:48 51°17.447 2°39.132 6.6 88 7.5 102790 93
2004-02-11 14:49 51°17.451 2°39.154 6.6 102 7.4 102790 93
2004-02-11 14:50 51°17.456 2°39.148 7 97 7.4 102790 93
2004-02-11 14:51 51°17.5 2°39.049 7.8 61 7.4 102780 93
2004-02-11 14:52 51°17.518 2°39.053 6.8 100 7.4 102800 93
2004-02-11 14:53 51°17.524 2°39.061 6.4 121 7.4 102810 93
2004-02-11 14:54 51°17.52 2°39.06 5.8 150 7.4 102800 93
2004-02-11 14:55 51°17.473 2°39.033 4.5 131 7.4 102800 93
2004-02-11 14:56 51°17.409 2°38.933 4.2 132 7.4 102800 93
2004-02-11 14:57 51°17.355 2°38.882 5 137 7.4 102800 93
2004-02-11 14:58 51°17.351 2°38.887 6 129 7.4 102790 93
2004-02-11 14:59 51°17.35 2°38.893 6.6 132 7.4 102800 93
2004-02-11 15:00 51°17.345 2°38.901 4.7 154 7.4 102800 93
2004-02-11 15:01 51°17.242 2°38.879 1.4 56 7.4 102810 93
2004-02-11 15:02 51°17.033 2°38.846 2.5 359 7.4 102810 93
2004-02-11 15:03 51°16.828 2°38.884 0.8 85 7.5 102810 93
2004-02-11 15:04 51°16.724 2°38.893 3.7 234 7.5 102810 93
2004-02-11 15:04 51°16.663 2°38.903 4.3 138 7.5 102810 93
2004-02-11 15:06 51°16.635 2°38.88 5.8 137 7.5 102810 93
2004-02-11 15:07 51°16.629 2°38.896 7.2 127 7.5 102800 93
2004-02-11 15:07 51°16.627 2°38.915 5.6 120 7.4 102810 93
2004-02-11 15:09 51°16.626 2°38.937 5.7 118 7.4 102810 93
2004-02-11 15:10 51°16.621 2°38.917 7 98 7.4 102810 93
2004-02-11 15:11 51°16.626 2°38.89 5.2 117 7.4 102800 93
2004-02-11 15:12 51°16.626 2°38.903 5.7 105 7.4 102800 93
2004-02-11 15:13 51°16.629 2°38.892 7.5 111 7.4 102810 93
2004-02-11 15:14 51°16.626 2°38.871 6.6 118 7.4 102820 93
2004-02-11 15:15 51°16.616 2°38.854 6.7 121 7.4 102810 93
2004-02-11 15:16 51°16.61 2°38.849 5.2 115 7.5 102820 93
2004-02-11 15:17 51°16.603 2°38.847 6.2 120 7.5 102800 93
2004-02-11 15:18 51°16.597 2°38.847 6.7 119 7.5 102810 93
2004-02-11 15:19 51°16.591 2°38.853 8 115 7.5 102820 93
2004-02-11 15:20 51°16.589 2°38.864 7 115 7.5 102810 93
2004-02-11 15:21 51°16.588 2°38.881 7.7 106 7.5 102800 93
2004-02-11 15:22 51°16.588 2°38.903 8 101 7.4 102800 93
2004-02-11 15:23 51°16.589 2°38.93 9.1 106 7.4 102800 93
2004-02-11 15:24 51°16.588 2°38.95 7.9 113 7.4 102810 93
2004-02-11 15:25 51°16.555 2°38.936 4.4 218 7.4 102810 93
2004-02-11 15:26 51°16.518 2°39.053 10.2 313 7.4 102820 93
2004-02-11 15:27 51°16.604 2°39.13 10.7 55 7.4 102780 93
2004-02-11 15:28 51°16.63 2°38.978 7.6 78 7.4 102800 93
2004-02-11 15:29 51°16.658 2°38.865 7.6 104 7.4 102810 93
2004-02-11 15:30 51°16.661 2°38.852 7.4 115 7.4 102820 93
2004-02-11 15:31 51°16.664 2°38.856 7.7 116 7.3 102810 93
2004-02-11 15:32 51°16.666 2°38.871 6.7 121 7.3 102830 93
2004-02-11 15:33 51°16.668 2°38.893 6.9 115 7.3 102810 93
2004-02-11 15:34 51°16.669 2°38.919 7.6 111 7.3 102820 93
2004-02-11 15:35 51°16.671 2°38.947 8.8 110 7.3 102820 93
2004-02-11 15:36 51°16.673 2°38.975 8.1 117 7.3 102820 94
2004-02-11 15:37 51°16.674 2°38.99 7.3 126 7.3 102820 94
2004-02-11 15:38 51°16.611 2°39.002 8.9 270 7.4 102820 94
2004-02-11 15:39 51°16.526 2°39.1 1.9 173 7.3 102830 94
2004-02-11 15:40 51°16.463 2°38.928 6.7 98 7.3 102830 94
2004-02-11 15:41 51°16.395 2°38.666 6.3 87 7.3 102820 94
2004-02-11 15:42 51°16.338 2°38.416 9.3 86 7.3 102830 94
2004-02-11 15:43 51°16.32 2°38.268 5.7 131 7.3 102830 94
2004-02-11 15:44 51°16.28 2°38.188 5.7 140 7.3 102830 94
2004-02-11 15:45 51°16.265 2°38.19 8 161 7.2 102830 94
2004-02-11 15:46 51°16.247 2°38.198 8.1 155 7.2 102830 94
2004-02-11 15:47 51°16.234 2°38.194 7.8 136 7.2 102820 94
2004-02-11 15:48 51°16.232 2°38.186 7.1 121 7.2 102830 94
2004-02-11 15:49 51°16.232 2°38.181 7.9 130 7.2 102830 94
2004-02-11 15:50 51°16.228 2°38.173 6.8 122 7.2 102830 94
2004-02-11 15:51 51°16.23 2°38.16 6.7 124 7.2 102830 94
2004-02-11 15:52 51°16.236 2°38.148 7.5 115 7.2 102830 94
2004-02-11 15:53 51°16.248 2°38.139 6.7 110 7.2 102820 94
2004-02-11 15:54 51°16.259 2°38.132 7 122 7.2 102820 94
2004-02-11 15:55 51°16.256 2°38.125 6.2 129 7.2 102840 94
2004-02-11 15:56 51°16.254 2°38.115 8.4 115 7.2 102830 94
2004-02-11 15:57 51°16.26 2°38.11 8.8 112 7.2 102830 94
2004-02-11 15:58 51°16.267 2°38.116 8.3 113 7.2 102830 94
2004-02-11 15:59 51°16.272 2°38.129 7.6 112 7.1 102820 94
2004-02-11 16:00 51°16.279 2°38.147 8.5 112 7.1 102830 94
2004-02-11 16:01 51°16.285 2°38.169 7.6 118 7.1 102840 94
2004-02-11 16:02 51°16.289 2°38.187 7.8 123 7.1 102840 94
2004-02-11 16:03 51°16.291 2°38.199 7.6 122 7.1 102850 94
2004-02-11 16:04 51°16.294 2°38.204 7 118 7.1 102840 94
2004-02-11 16:05 51°16.299 2°38.203 8 119 7.1 102830 94
2004-02-11 16:06 51°16.308 2°38.199 7.1 110 7.1 102840 94
2004-02-11 16:07 51°16.319 2°38.195 7.1 111 7.1 102830 94
2004-02-11 16:08 51°16.332 2°38.191 6.4 109 7.1 102840 94
2004-02-11 16:09 51°16.341 2°38.186 7 127 7.1 102830 94
2004-02-11 16:10 51°16.337 2°38.178 5.1 162 7.1 102840 94
2004-02-11 16:11 51°16.245 2°38.131 1 1 7.2 102850 94
2004-02-11 16:12 51°16.059 2°38.023 1.3 336 7.3 102850 94
2004-02-11 16:13 51°15.849 2°37.957 2.5 316 7.2 102850 94
2004-02-11 16:14 51°15.678 2°37.811 3.2 97 7.2 102850 94
2004-02-11 16:15 51°15.605 2°37.659 3.3 144 7.2 102860 94
2004-02-11 16:16 51°15.557 2°37.538 4.4 126 7.1 102840 94
2004-02-11 16:17 51°15.538 2°37.48 5.4 129 7.1 102840 94
2004-02-11 16:18 51°15.535 2°37.468 6.5 135 7.1 102840 94
2004-02-11 16:19 51°15.534 2°37.464 5.2 126 7.1 102840 94
2004-02-11 16:20 51°15.537 2°37.466 6.2 118 7.1 102830 94
2004-02-11 16:21 51°15.541 2°37.474 5.9 124 7.1 102840 94
2004-02-11 16:22 51°15.547 2°37.487 5.4 120 7.1 102840 94
2004-02-11 16:23 51°15.553 2°37.499 5.7 120 7.1 102830 94
2004-02-11 16:24 51°15.561 2°37.505 5.9 104 7.1 102840 94
2004-02-11 16:25 51°15.572 2°37.506 6.3 104 7.1 102830 94
2004-02-11 16:26 51°15.585 2°37.507 5.4 102 7.1 102840 94
2004-02-11 16:27 51°15.595 2°37.506 6.2 118 7.1 102840 94
2004-02-11 16:28 51°15.6 2°37.504 5.4 128 7.1 102840 94
2004-02-11 16:29 51°15.597 2°37.503 5.6 135 7.1 102850 94
2004-02-11 16:30 51°15.593 2°37.499 6.4 128 7.1 102840 94
2004-02-11 16:31 51°15.593 2°37.492 6.1 122 7.1 102850 94
2004-02-11 16:32 51°15.598 2°37.487 6 116 7.2 102840 94
2004-02-11 16:33 51°15.602 2°37.489 5.9 127 7.2 102850 94
2004-02-11 16:34 51°15.605 2°37.494 5.5 140 7.2 102850 94
2004-02-11 16:35 51°15.602 2°37.505 5.2 151 7.2 102850 94
2004-02-11 16:36 51°15.594 2°37.515 6.2 153 7.2 102850 94
2004-02-11 16:37 51°15.586 2°37.516 6 151 7.2 102850 94
2004-02-11 16:38 51°15.583 2°37.511 7.8 139 7.2 102840 94
2004-02-11 16:39 51°15.584 2°37.502 8.1 132 7.2 102850 94
2004-02-11 16:40 51°15.588 2°37.492 8.1 124 7.2 102840 94
2004-02-11 16:41 51°15.598 2°37.486 8 109 7.2 102840 94
2004-02-11 16:42 51°15.608 2°37.484 8.2 109 7.2 102830 94
2004-02-11 16:43 51°15.618 2°37.486 8.5 103 7.2 102830 93
2004-02-11 16:44 51°15.635 2°37.481 9.8 85 7.2 102830 93
2004-02-11 16:45 51°15.63 2°37.344 3.8 175 7.2 102830 93
2004-02-11 16:46 51°15.466 2°37.293 1.7 233 7.2 102850 93
2004-02-11 16:47 51°15.262 2°37.212 1.5 256 7.3 102850 93
2004-02-11 16:48 51°15.058 2°37.126 1 248 7.3 102850 93
2004-02-11 16:49 51°14.877 2°37.112 2.7 216 7.3 102850 93
2004-02-11 16:50 51°14.79 2°37.077 4.7 170 7.3 102860 93
2004-02-11 16:51 51°14.752 2°37.041 7.1 154 7.3 102850 92
2004-02-11 16:52 51°14.741 2°37.034 6 151 7.3 102850 92
2004-02-11 16:53 51°14.735 2°37.027 7.8 145 7.3 102840 92
2004-02-11 16:54 51°14.732 2°37.025 7.4 136 7.3 102840 92
2004-02-11 16:55 51°14.734 2°37.029 6.9 117 7.3 102840 92
2004-02-11 16:56 51°14.741 2°37.028 7 116 7.3 102850 92
2004-02-11 16:57 51°14.749 2°37.032 6.5 118 7.3 102840 92
2004-02-11 16:58 51°14.758 2°37.04 6.4 108 7.3 102840 92
2004-02-11 16:59 51°14.765 2°37.052 5.5 112 7.3 102860 92
2004-02-11 17:00 51°14.772 2°37.066 6.1 116 7.3 102850 92
2004-02-11 17:01 51°14.779 2°37.083 5.4 120 7.3 102850 92
2004-02-11 17:02 51°14.786 2°37.101 5.4 116 7.3 102850 92
2004-02-11 17:03 51°14.793 2°37.119 5.5 115 7.3 102850 92
2004-02-11 17:04 51°14.8 2°37.138 5.1 106 7.3 102850 92
2004-02-11 17:05 51°14.805 2°37.157 6 110 7.3 102850 92
2004-02-11 17:06 51°14.81 2°37.173 6.7 118 7.2 102850 91
2004-02-11 17:07 51°14.818 2°37.185 5.9 120 7.2 102860 91
2004-02-11 17:08 51°14.825 2°37.193 4.9 125 7.2 102860 91
2004-02-11 17:09 51°14.832 2°37.199 4.8 132 7.2 102860 91
2004-02-11 17:10 51°14.838 2°37.203 4.7 131 7.2 102860 91
2004-02-11 17:11 51°14.841 2°37.206 4.3 146 7.2 102870 91
2004-02-11 17:12 51°14.819 2°37.19 2 264 7.2 102860 91
2004-02-11 17:13 51°14.722 2°37.367 9.9 334 7.2 102860 91
2004-02-11 17:14 51°14.665 2°37.726 11.5 329 7.2 102810 91
2004-02-11 17:15 51°14.623 2°38.105 9.3 335 7.2 102800 91
2004-02-11 17:16 51°14.577 2°38.483 10.1 332 7.2 102810 90
2004-02-11 17:17 51°14.529 2°38.859 10.5 332 7.2 102810 90
2004-02-11 17:18 51°14.48 2°39.234 10.9 339 7.2 102800 90
2004-02-11 17:19 51°14.431 2°39.606 11.2 330 7.2 102810 90
2004-02-11 17:20 51°14.4 2°39.98 11.7 335 7.2 102820 90
2004-02-11 17:21 51°14.387 2°40.361 10.8 336 7.2 102820 90
2004-02-11 17:22 51°14.38 2°40.742 10.4 337 7.2 102820 89
2004-02-11 17:23 51°14.396 2°41.126 9.3 341 7.2 102820 89
2004-02-11 17:24 51°14.413 2°41.512 12 331 7.2 102820 89
2004-02-11 17:25 51°14.424 2°41.898 11.5 334 7.2 102820 89
2004-02-11 17:26 51°14.436 2°42.281 12.6 330 7.2 102830 89
2004-02-11 17:27 51°14.458 2°42.665 11.8 342 7.2 102820 88
2004-02-11 17:28 51°14.493 2°43.051 11.3 337 7.3 102830 88
2004-02-11 17:29 51°14.526 2°43.435 13.3 336 7.2 102820 88
2004-02-11 17:30 51°14.559 2°43.82 13.3 339 7.3 102830 88
2004-02-11 17:31 51°14.591 2°44.205 12.3 339 7.2 102820 88
2004-02-11 17:32 51°14.624 2°44.591 12.7 337 7.3 102830 87
2004-02-11 17:33 51°14.651 2°44.979 11.3 337 7.3 102880 87
2004-02-11 17:34 51°14.617 2°45.352 11 329 7.3 102820 87
2004-02-11 17:35 51°14.591 2°45.725 11 328 7.2 102830 86
2004-02-11 17:36 51°14.571 2°46.104 12.5 333 7.2 102830 86
2004-02-11 17:37 51°14.556 2°46.488 13.2 327 7.2 102830 85
2004-02-11 17:38 51°14.554 2°46.869 12.8 329 7.2 102840 85
2004-02-11 17:39 51°14.561 2°47.247 12.2 325 7.2 102840 84
2004-02-11 17:40 51°14.574 2°47.626 13.7 320 7.2 102840 84
2004-02-11 17:41 51°14.588 2°48.006 9.8 332 7.3 102860 84
2004-02-11 17:42 51°14.591 2°48.389 10.7 331 7.3 102850 83
2004-02-11 17:43 51°14.585 2°48.768 11 327 7.3 102860 83
2004-02-11 17:44 51°14.58 2°49.147 10.1 324 7.4 102850 83
2004-02-11 17:45 51°14.592 2°49.528 10.4 327 7.4 102850 83
2004-02-11 17:46 51°14.615 2°49.908 10.5 330 7.3 102850 83
2004-02-11 17:47 51°14.634 2°50.289 10.4 325 7.3 102850 83
2004-02-11 17:48 51°14.654 2°50.668 9.8 329 7.4 102860 83
2004-02-11 17:49 51°14.673 2°51.045 9.8 336 7.4 102860 83
2004-02-11 17:50 51°14.693 2°51.423 11 332 7.4 102850 84
2004-02-11 17:51 51°14.708 2°51.756 8.6 320 7.3 102880 84
2004-02-11 17:52 51°14.721 2°52.003 7.5 316 7.3 102880 84
2004-02-11 17:53 51°14.735 2°52.328 10.3 326 7.3 102850 84
2004-02-11 17:54 51°14.75 2°52.7 10.3 328 7.3 102870 84
2004-02-11 17:55 51°14.762 2°53.076 10.7 328 7.3 102870 84
2004-02-11 17:56 51°14.718 2°53.439 9.1 320 7.3 102870 84
2004-02-11 17:57 51°14.636 2°53.784 9.4 323 7.4 102880 84
2004-02-11 17:58 51°14.566 2°54.142 7.9 328 7.4 102880 84
2004-02-11 17:59 51°14.487 2°54.494 9.6 317 7.3 102880 84